User: anonymous   Login
Location: Newark
(20.5800°N, 87.1197°W)
Time: 06:50:20
(UTC+00:00)
Language:

N. Korean satellite - Orbit

View from above orbital plane
View from above orbital plane
View from above satellite
View from above satellite

Ground track
Ground track

The orbit data is extracted from the following two-line orbital elements,

1 39026U 12072A   20299.96127177 +.00002595 +00000-0 +92876-4 0  9991
2 39026 097.2315 292.9789 0038174 137.6037 222.8164 15.28972642437189
Epoch (UTC): 25 October 2020 23:04:13
Eccentricity: 0.0038174
inclination: 97.2315°
perigee height: 453 km
apogee height: 505 km
right ascension of ascending node: 292.9789°
argument of perigee: 137.6037°
revolutions per day: 15.28972642
mean anomaly at epoch: 222.8164°
orbit number at epoch: 43718

The dashed part of the orbit path shows where the satellite is in the earth's shadow,  

DLR